FORESAIL-1 PRIME

Last updated on Sat Aug 15 2026 00:03:45 GMT+0000 (Coordinated Universal Time)

1 66778U 25276DS 26226.16645102 .00002122 00000+0 10424-3 0 9999 2 66778 97.4166 298.3820 0000661 239.1137 121.0032 15.19132247 39208
UTC large
Height (km)
Speed (km/s)
/
Latitude / Longitude
Inclination (degrees)
Orbital Period (minutes)
Azimuth
Elevation
Range (km)
Doppler Factor

Next 0 passes for location: London (51.5072 / 0.1276)

No passes found over London.
FORESAIL-1 PRIME